This is the latest recevied weather packets stored in our database for station/object AB1AU. If no packets are shown the sender has not sent any weather packets the latest 10 day(s).
| Time | Temp. | Humidity | Pressure | Rain* | Wind** | Luminosity | Snow |
|---|---|---|---|---|---|---|---|
| 1777223096 | 17.22° C | 38% | 1020.7 hPa | 0 mm | - | 436 W/m² | - |
| 1777222792 | 17.22° C | 38% | 1020.9 hPa | 0 mm | - | 195 W/m² | - |
| 1777222491 | 17.78° C | 38% | 1020.9 hPa | 0 mm | - | 101 W/m² | - |
| 1777222188 | 17.22° C | 37% | 1020.8 hPa | 0 mm | - | 155 W/m² | - |
| 1777221885 | 17.22° C | 37% | 1021 hPa | 0 mm | - | 299 W/m² | - |
| 1777221585 | 17.22° C | 36% | 1020.9 hPa | 0 mm | - | 434 W/m² | - |
| 1777221283 | 16.67° C | 38% | 1020.8 hPa | 0 mm | - | 172 W/m² | - |
| 1777220979 | 16.67° C | 38% | 1021 hPa | 0 mm | - | 163 W/m² | - |
| 1777220675 | 16.67° C | 36% | 1021.1 hPa | 0 mm | - | 129 W/m² | - |
| 1777220372 | 16.67° C | 36% | 1021.2 hPa | 0 mm | - | 266 W/m² | - |
| 1777220070 | 16.67° C | 38% | 1021.2 hPa | 0 mm | - | 170 W/m² | - |
| 1777219768 | 16.11° C | 39% | 1021.2 hPa | 0 mm | - | 327 W/m² | - |
| 1777219465 | 16.67° C | 36% | 1021.2 hPa | 0 mm | - | 222 W/m² | - |
| 1777219161 | 16.67° C | 38% | 1021.7 hPa | 0 mm | - | 332 W/m² | - |
| 1777218857 | 16.67° C | 38% | 1021.5 hPa | 0 mm | - | 471 W/m² | - |
| 1777218554 | 16.11° C | 39% | 1021.3 hPa | 0 mm | - | 319 W/m² | - |
| 1777218248 | 16.11° C | 37% | 1021.3 hPa | 0 mm | - | 422 W/m² | - |
| 1777217946 | 15.56° C | 39% | 1021.4 hPa | 0 mm | - | 206 W/m² | - |
| 1777217641 | 16.11° C | 36% | 1021.5 hPa | 0 mm | - | 239 W/m² | - |
| 1777217337 | 16.11° C | 40% | 1021.5 hPa | 0 mm | - | 47 W/m² | - |
| 1777217033 | 16.11° C | 38% | 1021.4 hPa | 0 mm | - | 66 W/m² | - |
| 1777216731 | 16.11° C | 40% | 1021.3 hPa | 0 mm | - | 79 W/m² | - |
| 1777216431 | 15.56° C | 41% | 1021.5 hPa | 0 mm | - | 56 W/m² | - |
| 1777216130 | 15.56° C | 40% | 1021.4 hPa | 0 mm | - | 123 W/m² | - |
| 1777215825 | 15.56° C | 39% | 1021.5 hPa | 0 mm | - | 279 W/m² | - |
* Rain latest hour (hover to see other rain measurements)
** Current wind speed in m/s (hover to see current wind gust speed)